ABR5MS ELLX-LEBL

Flight info

Callsign ABR5MS
Flight time 1h 45m
Altitude 36000
Route GTQ A242 POGOL DCT LASAT DCT MOROK DCT GILIR DCT GEVEA DCT INCUS DCT BALSI DCT ETIDO DCT KURIR DCT PEQEF DCT NAKIS DCT BOLSA DCT PPG DCT ALBER
Aircraft B738/M-SDE2E3FGHIRWXY/LB1

Departure

Time 2026-05-05 07:58
Airport Luxembourg-Findel International Airport (ELLX)

Arrival

Time 2026-05-05 09:44
Airport Josep Tarradellas Barcelona-El Prat Airport (LEBL)
Time Latitude Longitude Altitude Speed Heading
2026-05-05 06:58 49.63659 6.22569 1221 ft 0 kts 240°
2026-05-05 07:38 49.63665 6.22585 1221 ft 3 kts 240°
2026-05-05 07:38 49.63671 6.22602 1222 ft 3 kts 240°
2026-05-05 07:38 49.63679 6.22625 1222 ft 3 kts 240°
2026-05-05 07:38 49.63689 6.22651 1223 ft 3 kts 230°
2026-05-05 07:39 49.63704 6.22669 1223 ft 3 kts 198°
2026-05-05 07:39 49.63722 6.22673 1223 ft 3 kts 167°
2026-05-05 07:39 49.63740 6.22662 1223 ft 3 kts 155°
2026-05-05 07:39 49.63743 6.22660 1223 ft 0 kts 155°
2026-05-05 07:44 49.63742 6.22661 1223 ft 3 kts 155°
2026-05-05 07:44 49.63678 6.22707 1223 ft 11 kts 155°
2026-05-05 07:44 49.63612 6.22768 1221 ft 11 kts 149°
2026-05-05 07:44 49.63542 6.22832 1218 ft 13 kts 151°
2026-05-05 07:45 49.63462 6.22812 1216 ft 13 kts 230°
2026-05-05 07:45 49.63418 6.22697 1217 ft 12 kts 240°
2026-05-05 07:45 49.63401 6.22650 1217 ft 0 kts 240°
2026-05-05 07:46 49.63399 6.22646 1217 ft 2 kts 240°
2026-05-05 07:46 49.63384 6.22602 1216 ft 8 kts 241°
2026-05-05 07:46 49.63356 6.22523 1216 ft 9 kts 241°
2026-05-05 07:47 49.63327 6.22442 1219 ft 8 kts 242°
2026-05-05 07:47 49.63301 6.22365 1221 ft 8 kts 242°
2026-05-05 07:47 49.63277 6.22288 1222 ft 8 kts 245°
2026-05-05 07:47 49.63254 6.22212 1223 ft 8 kts 245°
2026-05-05 07:48 49.63230 6.22135 1225 ft 8 kts 244°
2026-05-05 07:48 49.63207 6.22061 1227 ft 8 kts 244°
2026-05-05 07:48 49.63184 6.21984 1228 ft 9 kts 245°
2026-05-05 07:48 49.63152 6.21881 1227 ft 12 kts 245°
2026-05-05 07:49 49.63114 6.21754 1227 ft 13 kts 245°
2026-05-05 07:49 49.63071 6.21618 1227 ft 15 kts 244°
2026-05-05 07:49 49.63027 6.21466 1228 ft 14 kts 263°
2026-05-05 07:49 49.63031 6.21386 1231 ft 7 kts 216°
2026-05-05 07:50 49.63008 6.21415 1230 ft 6 kts 84°
2026-05-05 07:50 49.63039 6.21510 1227 ft 12 kts 65°
2026-05-05 07:50 49.63074 6.21630 1227 ft 12 kts 66°
2026-05-05 07:50 49.63108 6.21744 1227 ft 12 kts 65°
2026-05-05 07:51 49.63142 6.21856 1227 ft 11 kts 65°
2026-05-05 07:51 49.63174 6.21965 1228 ft 11 kts 65°
2026-05-05 07:51 49.63207 6.22069 1227 ft 11 kts 62°
2026-05-05 07:51 49.63244 6.22179 1224 ft 12 kts 65°
2026-05-05 07:52 49.63281 6.22299 1222 ft 12 kts 64°
2026-05-05 07:52 49.63319 6.22420 1220 ft 13 kts 64°
2026-05-05 07:52 49.63365 6.22557 1216 ft 15 kts 61°
2026-05-05 07:52 49.63414 6.22693 1217 ft 14 kts 60°
2026-05-05 07:53 49.63461 6.22821 1216 ft 13 kts 60°
2026-05-05 07:53 49.63508 6.22942 1219 ft 13 kts 58°
2026-05-05 07:53 49.63551 6.23062 1220 ft 13 kts 60°
2026-05-05 07:53 49.63593 6.23178 1220 ft 12 kts 60°
2026-05-05 07:54 49.63636 6.23292 1221 ft 12 kts 59°
2026-05-05 07:54 49.63669 6.23405 1219 ft 12 kts 92°
2026-05-05 07:54 49.63649 6.23444 1219 ft 0 kts 146°
2026-05-05 07:57 49.63627 6.23465 1219 ft 7 kts 149°
2026-05-05 07:57 49.63585 6.23501 1221 ft 7 kts 151°
2026-05-05 07:57 49.63543 6.23529 1223 ft 7 kts 188°
2026-05-05 07:57 49.63504 6.23459 1223 ft 15 kts 240°
2026-05-05 07:58 49.63375 6.23112 1218 ft 72 kts 241°
2026-05-05 07:58 49.63009 6.22123 1222 ft 138 kts 239°
2026-05-05 07:58 49.62424 6.20594 1349 ft 183 kts 237°
2026-05-05 07:58 49.61758 6.18867 2101 ft 186 kts 237°
2026-05-05 07:59 49.61155 6.17226 3182 ft 177 kts 238°
2026-05-05 07:59 49.60536 6.15547 3647 ft 180 kts 238°
2026-05-05 07:59 49.59918 6.13859 3632 ft 179 kts 239°
2026-05-05 07:59 49.59297 6.12280 3943 ft 171 kts 230°
2026-05-05 08:00 49.58390 6.10987 4309 ft 183 kts 211°
2026-05-05 08:00 49.57177 6.10223 4886 ft 191 kts 189°
2026-05-05 08:00 49.55902 6.10225 5872 ft 184 kts 169°
2026-05-05 08:00 49.54660 6.11161 5932 ft 221 kts 136°
2026-05-05 08:01 49.53912 6.13357 6200 ft 245 kts 102°
2026-05-05 08:01 49.53985 6.16034 6563 ft 256 kts 77°
2026-05-05 08:01 49.54414 6.18695 7186 ft 259 kts 78°
2026-05-05 08:01 49.54821 6.21431 7893 ft 262 kts 78°
2026-05-05 08:02 49.55227 6.24183 8544 ft 266 kts 79°
2026-05-05 08:02 49.55639 6.26982 9194 ft 270 kts 79°
2026-05-05 08:02 49.56059 6.29823 9774 ft 279 kts 79°
2026-05-05 08:02 49.56501 6.32872 10114 ft 301 kts 82°
2026-05-05 08:03 49.56441 6.36221 10286 ft 323 kts 107°
2026-05-05 08:03 49.55465 6.39400 10528 ft 340 kts 130°
2026-05-05 08:03 49.53699 6.41810 11117 ft 344 kts 152°
2026-05-05 08:03 49.51478 6.43254 11918 ft 345 kts 162°
2026-05-05 08:04 49.49176 6.44383 12699 ft 349 kts 164°
2026-05-05 08:04 49.46837 6.45462 13446 ft 353 kts 165°
2026-05-05 08:04 49.44468 6.46539 14167 ft 356 kts 165°
2026-05-05 08:04 49.42081 6.47615 14923 ft 357 kts 165°
2026-05-05 08:05 49.39705 6.48680 15669 ft 359 kts 165°
2026-05-05 08:05 49.37294 6.49755 16404 ft 361 kts 165°
2026-05-05 08:05 49.34872 6.50830 17095 ft 364 kts 165°
2026-05-05 08:05 49.32434 6.51900 17789 ft 366 kts 166°
2026-05-05 08:06 49.29960 6.52898 18431 ft 369 kts 166°
2026-05-05 08:06 49.27441 6.53878 18986 ft 373 kts 167°
2026-05-05 08:06 49.24926 6.54845 19491 ft 378 kts 167°
2026-05-05 08:06 49.22354 6.55898 20023 ft 382 kts 166°
2026-05-05 08:07 49.19764 6.56973 20557 ft 385 kts 165°
2026-05-05 08:07 49.17241 6.58291 21074 ft 390 kts 159°
2026-05-05 08:07 49.14710 6.59929 21593 ft 394 kts 158°
2026-05-05 08:07 49.12212 6.61625 22097 ft 397 kts 157°
2026-05-05 08:08 49.09674 6.63415 22605 ft 402 kts 154°
2026-05-05 08:08 49.07241 6.65512 23090 ft 405 kts 152°
2026-05-05 08:08 49.04744 6.67537 23572 ft 408 kts 155°
2026-05-05 08:08 49.02168 6.69360 24005 ft 409 kts 158°
2026-05-05 08:09 48.99525 6.71023 24464 ft 409 kts 165°
2026-05-05 08:09 48.96729 6.71703 24905 ft 407 kts 180°
2026-05-05 08:09 48.94821 6.71658 25236 ft 407 kts 182°
2026-05-05 08:09 48.91060 6.71446 25814 ft 409 kts 183°
2026-05-05 08:10 48.89159 6.71331 26076 ft 410 kts 183°
2026-05-05 08:10 48.86283 6.71170 26480 ft 412 kts 183°
2026-05-05 08:10 48.83398 6.71029 26878 ft 414 kts 182°
2026-05-05 08:10 48.80521 6.70905 27266 ft 416 kts 182°
2026-05-05 08:11 48.77632 6.70789 27631 ft 418 kts 182°
2026-05-05 08:11 48.74690 6.70675 28003 ft 419 kts 182°
2026-05-05 08:11 48.71787 6.70563 28368 ft 421 kts 182°
2026-05-05 08:11 48.68881 6.70450 28727 ft 423 kts 182°
2026-05-05 08:12 48.65925 6.70335 29080 ft 424 kts 182°
2026-05-05 08:12 48.62985 6.70220 29601 ft 421 kts 182°
2026-05-05 08:12 48.60066 6.70108 30178 ft 417 kts 182°
2026-05-05 08:12 48.57167 6.69997 30697 ft 413 kts 182°
2026-05-05 08:13 48.54330 6.69889 31227 ft 408 kts 183°
2026-05-05 08:13 48.51470 6.69780 31727 ft 404 kts 183°
2026-05-05 08:13 48.48700 6.69673 32212 ft 401 kts 183°
2026-05-05 08:13 48.45895 6.69566 32715 ft 397 kts 183°
2026-05-05 08:14 48.43157 6.69461 33211 ft 393 kts 183°
2026-05-05 08:14 48.40421 6.69357 33691 ft 389 kts 184°
2026-05-05 08:14 48.37749 6.69255 34060 ft 387 kts 184°
2026-05-05 08:14 48.35052 6.69151 34234 ft 390 kts 184°
2026-05-05 08:15 48.32330 6.69045 34415 ft 393 kts 183°
2026-05-05 08:15 48.29562 6.68938 34662 ft 394 kts 183°
2026-05-05 08:15 48.26830 6.68833 34963 ft 395 kts 183°
2026-05-05 08:15 48.24094 6.68727 35189 ft 398 kts 183°
2026-05-05 08:16 48.21308 6.68621 35335 ft 400 kts 183°
2026-05-05 08:16 48.18519 6.68514 35573 ft 400 kts 183°
2026-05-05 08:16 48.15738 6.68408 35771 ft 401 kts 183°
2026-05-05 08:16 48.12958 6.68301 35886 ft 404 kts 183°
2026-05-05 08:17 48.07298 6.68086 35910 ft 407 kts 183°
2026-05-05 08:17 48.01641 6.67872 35903 ft 406 kts 183°
2026-05-05 08:18 47.96000 6.67659 35891 ft 404 kts 183°
2026-05-05 08:18 47.90361 6.67447 35888 ft 401 kts 183°
2026-05-05 08:19 47.84833 6.67238 35887 ft 399 kts 183°
2026-05-05 08:19 47.79253 6.67028 35888 ft 397 kts 183°
2026-05-05 08:20 47.73762 6.66821 35888 ft 396 kts 182°
2026-05-05 08:20 47.68215 6.66613 35891 ft 397 kts 182°
2026-05-05 08:21 47.62724 6.66408 35893 ft 397 kts 182°
2026-05-05 08:21 47.57166 6.66200 35888 ft 399 kts 182°
2026-05-05 08:22 47.51618 6.65994 35889 ft 401 kts 182°
2026-05-05 08:22 47.46036 6.65786 35886 ft 402 kts 182°
2026-05-05 08:23 47.40501 6.64615 35892 ft 402 kts 199°
2026-05-05 08:23 47.35595 6.60635 35882 ft 406 kts 218°
2026-05-05 08:24 47.31301 6.55188 35899 ft 408 kts 219°
2026-05-05 08:24 47.27024 6.49722 35916 ft 411 kts 218°
2026-05-05 08:25 47.22642 6.44209 35906 ft 413 kts 218°
2026-05-05 08:25 47.18312 6.38802 35902 ft 401 kts 218°
2026-05-05 08:26 47.14080 6.33534 35902 ft 401 kts 218°
2026-05-05 08:26 47.09812 6.28236 35881 ft 401 kts 217°
2026-05-05 08:27 47.07481 6.25958 35889 ft 399 kts 206°
2026-05-05 08:27 47.04956 6.24356 35892 ft 399 kts 199°
2026-05-05 08:27 47.02277 6.23304 35874 ft 400 kts 188°
2026-05-05 08:27 46.99473 6.22854 35901 ft 401 kts 186°
2026-05-05 08:28 46.93879 6.22170 35892 ft 403 kts 186°
2026-05-05 08:28 46.88270 6.21484 35888 ft 406 kts 186°
2026-05-05 08:29 46.82656 6.20759 35891 ft 408 kts 186°
2026-05-05 08:30 46.74124 6.19623 35896 ft 410 kts 187°
2026-05-05 08:30 46.68434 6.18858 35894 ft 410 kts 187°
2026-05-05 08:31 46.62756 6.18106 35897 ft 410 kts 187°
2026-05-05 08:31 46.57073 6.17358 35897 ft 410 kts 187°
2026-05-05 08:32 46.51392 6.16611 35906 ft 409 kts 187°
2026-05-05 08:32 46.45735 6.15869 35906 ft 408 kts 187°
2026-05-05 08:33 46.40048 6.15126 35917 ft 407 kts 187°
2026-05-05 08:33 46.34407 6.14390 35911 ft 407 kts 187°
2026-05-05 08:34 46.28783 6.13658 35913 ft 406 kts 187°
2026-05-05 08:34 46.23147 6.12812 35912 ft 404 kts 189°
2026-05-05 08:35 46.17599 6.11558 35908 ft 404 kts 191°
2026-05-05 08:35 46.12047 6.10260 35910 ft 403 kts 191°
2026-05-05 08:36 46.06514 6.09012 35904 ft 403 kts 191°
2026-05-05 08:36 46.00975 6.07785 35905 ft 403 kts 191°
2026-05-05 08:37 45.95433 6.06563 35908 ft 403 kts 191°
2026-05-05 08:37 45.89855 6.05336 35920 ft 404 kts 191°
2026-05-05 08:38 45.84300 6.04113 35903 ft 406 kts 191°
2026-05-05 08:38 45.78689 6.02869 35910 ft 406 kts 191°
2026-05-05 08:39 45.73108 6.01634 35910 ft 406 kts 191°
2026-05-05 08:39 45.67521 6.00404 35913 ft 406 kts 191°
2026-05-05 08:40 45.61952 5.99182 35906 ft 406 kts 191°
2026-05-05 08:40 45.57313 5.98167 35913 ft 406 kts 191°
2026-05-05 08:41 45.51708 5.96907 35908 ft 405 kts 195°
2026-05-05 08:41 45.49040 5.95645 35910 ft 402 kts 206°
2026-05-05 08:41 45.46585 5.93783 35908 ft 401 kts 213°
2026-05-05 08:42 45.42369 5.88562 35914 ft 401 kts 225°
2026-05-05 08:42 45.38464 5.82855 35902 ft 402 kts 225°
2026-05-05 08:43 45.34557 5.77187 35920 ft 404 kts 225°
2026-05-05 08:43 45.30596 5.71513 35908 ft 405 kts 225°
2026-05-05 08:44 45.26610 5.65834 35925 ft 408 kts 225°
2026-05-05 08:44 45.22558 5.60077 35910 ft 411 kts 225°
2026-05-05 08:45 45.18572 5.54425 35904 ft 401 kts 225°
2026-05-05 08:45 45.14650 5.48876 35910 ft 397 kts 225°
2026-05-05 08:46 45.10738 5.43350 35919 ft 396 kts 225°
2026-05-05 08:46 45.06843 5.37859 35922 ft 397 kts 225°
2026-05-05 08:47 45.02903 5.32317 35910 ft 397 kts 225°
2026-05-05 08:47 44.98993 5.26831 35916 ft 395 kts 225°
2026-05-05 08:48 44.95091 5.21370 35923 ft 395 kts 225°
2026-05-05 08:48 44.91191 5.15920 35907 ft 394 kts 225°
2026-05-05 08:49 44.87293 5.10485 35925 ft 395 kts 225°
2026-05-05 08:49 44.83369 5.05027 35922 ft 396 kts 225°
2026-05-05 08:50 44.79438 4.99569 35914 ft 396 kts 225°
2026-05-05 08:50 44.75515 4.94131 35921 ft 396 kts 225°
2026-05-05 08:51 44.71685 4.88542 35912 ft 398 kts 232°
2026-05-05 08:51 44.68338 4.82299 35923 ft 398 kts 232°
2026-05-05 08:52 44.65027 4.76103 35923 ft 397 kts 232°
2026-05-05 08:52 44.61688 4.69908 35931 ft 396 kts 232°
2026-05-05 08:53 44.58357 4.63763 35932 ft 395 kts 232°
2026-05-05 08:53 44.55042 4.57668 35913 ft 394 kts 232°
2026-05-05 08:54 44.51702 4.51539 35927 ft 393 kts 232°
2026-05-05 08:54 44.48392 4.45475 35920 ft 393 kts 232°
2026-05-05 08:55 44.45054 4.39375 35918 ft 392 kts 232°
2026-05-05 08:55 44.41722 4.33298 35920 ft 392 kts 232°
2026-05-05 08:56 44.38441 4.27249 35921 ft 392 kts 235°
2026-05-05 08:56 44.35902 4.20474 35928 ft 394 kts 243°
2026-05-05 08:57 44.33441 4.13634 35913 ft 392 kts 234°
2026-05-05 08:57 44.29780 4.08054 35925 ft 392 kts 220°
2026-05-05 08:58 44.25151 4.03938 35920 ft 394 kts 212°
2026-05-05 08:58 44.20404 4.00183 35914 ft 395 kts 212°
2026-05-05 08:59 44.15604 3.96379 35928 ft 394 kts 212°
2026-05-05 08:59 44.10849 3.92586 35917 ft 394 kts 212°
2026-05-05 09:00 44.06096 3.88787 35925 ft 393 kts 212°
2026-05-05 09:00 44.01358 3.85003 35918 ft 393 kts 212°
2026-05-05 09:01 43.96636 3.81239 35918 ft 392 kts 212°
2026-05-05 09:01 43.91920 3.77486 35925 ft 391 kts 212°
2026-05-05 09:02 43.87200 3.73738 35930 ft 390 kts 212°
2026-05-05 09:02 43.82517 3.70026 35943 ft 388 kts 212°
2026-05-05 09:03 43.77819 3.66308 35932 ft 388 kts 212°
2026-05-05 09:03 43.73117 3.62595 35934 ft 388 kts 212°
2026-05-05 09:04 43.68425 3.58896 35932 ft 387 kts 212°
2026-05-05 09:04 43.63746 3.55214 35927 ft 387 kts 212°
2026-05-05 09:05 43.59075 3.51545 35936 ft 387 kts 212°
2026-05-05 09:05 43.54385 3.47867 35935 ft 386 kts 212°
2026-05-05 09:06 43.49711 3.44210 35936 ft 386 kts 212°
2026-05-05 09:06 43.45044 3.40564 35943 ft 385 kts 213°
2026-05-05 09:07 43.40380 3.36929 35943 ft 385 kts 213°
2026-05-05 09:07 43.35724 3.33304 35939 ft 385 kts 213°
2026-05-05 09:08 43.31038 3.29662 35940 ft 385 kts 213°
2026-05-05 09:08 43.26372 3.26045 35937 ft 385 kts 213°
2026-05-05 09:09 43.21727 3.22453 35939 ft 385 kts 213°
2026-05-05 09:09 43.17032 3.18829 35939 ft 385 kts 213°
2026-05-05 09:10 43.12378 3.15243 35942 ft 385 kts 213°
2026-05-05 09:10 43.07703 3.11648 35944 ft 384 kts 213°
2026-05-05 09:11 43.03056 3.08080 35951 ft 384 kts 213°
2026-05-05 09:11 42.99177 3.05107 35955 ft 384 kts 213°
2026-05-05 09:12 42.94511 3.01536 35959 ft 384 kts 213°
2026-05-05 09:12 42.89855 2.97979 35958 ft 383 kts 213°
2026-05-05 09:13 42.85196 2.94428 35968 ft 383 kts 213°
2026-05-05 09:13 42.80538 2.90882 35964 ft 383 kts 213°
2026-05-05 09:14 42.75742 2.87674 35972 ft 388 kts 204°
2026-05-05 09:14 42.70418 2.86083 35969 ft 397 kts 192°
2026-05-05 09:15 42.64920 2.85470 35969 ft 397 kts 191°
2026-05-05 09:15 42.59500 2.84880 35735 ft 381 kts 192°
2026-05-05 09:15 42.56872 2.84582 35425 ft 375 kts 192°
2026-05-05 09:16 42.54271 2.84277 34913 ft 374 kts 192°
2026-05-05 09:16 42.51681 2.83972 34445 ft 373 kts 193°
2026-05-05 09:16 42.49114 2.83670 33984 ft 372 kts 193°
2026-05-05 09:16 42.46516 2.83365 33432 ft 371 kts 193°
2026-05-05 09:17 42.43959 2.83003 32884 ft 366 kts 196°
2026-05-05 09:17 42.41449 2.82448 32357 ft 363 kts 198°
2026-05-05 09:17 42.39001 2.81823 31843 ft 361 kts 198°
2026-05-05 09:17 42.36540 2.81178 31335 ft 360 kts 199°
2026-05-05 09:18 42.34057 2.80531 30839 ft 359 kts 199°
2026-05-05 09:18 42.31629 2.79909 30353 ft 358 kts 199°
2026-05-05 09:18 42.29161 2.79288 29835 ft 357 kts 199°
2026-05-05 09:18 42.26728 2.78683 29270 ft 356 kts 199°
2026-05-05 09:19 42.24284 2.78080 28708 ft 354 kts 198°
2026-05-05 09:19 42.21866 2.77486 28161 ft 353 kts 198°
2026-05-05 09:19 42.19465 2.76898 27634 ft 351 kts 198°
2026-05-05 09:19 42.17074 2.76314 27106 ft 349 kts 198°
2026-05-05 09:20 42.15475 2.75923 26759 ft 348 kts 198°
2026-05-05 09:20 42.15069 2.75824 26676 ft 348 kts 198°
2026-05-05 09:20 42.13010 2.75322 26235 ft 347 kts 198°
2026-05-05 09:20 42.10638 2.74744 25738 ft 345 kts 198°
2026-05-05 09:21 42.08285 2.74171 25231 ft 343 kts 198°
2026-05-05 09:21 42.05941 2.73602 24756 ft 341 kts 198°
2026-05-05 09:21 42.03602 2.73032 24288 ft 340 kts 198°
2026-05-05 09:21 42.01281 2.72468 23823 ft 339 kts 198°
2026-05-05 09:22 41.98958 2.71902 23322 ft 338 kts 198°
2026-05-05 09:22 41.96647 2.71341 22784 ft 337 kts 197°
2026-05-05 09:22 41.94341 2.70781 22237 ft 336 kts 197°
2026-05-05 09:22 41.92037 2.70223 21710 ft 336 kts 197°
2026-05-05 09:23 41.89741 2.69667 21185 ft 335 kts 197°
2026-05-05 09:23 41.87453 2.69113 20678 ft 334 kts 196°
2026-05-05 09:23 41.85195 2.68567 20181 ft 333 kts 196°
2026-05-05 09:23 41.82916 2.68017 19689 ft 332 kts 196°
2026-05-05 09:24 41.80641 2.67468 19196 ft 332 kts 195°
2026-05-05 09:24 41.78367 2.66920 18731 ft 331 kts 195°
2026-05-05 09:24 41.76101 2.66375 18254 ft 331 kts 195°
2026-05-05 09:24 41.73836 2.65830 17720 ft 330 kts 195°
2026-05-05 09:25 41.71578 2.65286 17188 ft 329 kts 194°
2026-05-05 09:25 41.69326 2.64743 16661 ft 328 kts 194°
2026-05-05 09:25 41.67098 2.64128 16126 ft 325 kts 201°
2026-05-05 09:25 41.65150 2.62705 15636 ft 319 kts 220°
2026-05-05 09:26 41.63607 2.60589 15149 ft 318 kts 233°
2026-05-05 09:26 41.62571 2.57982 14662 ft 319 kts 247°
2026-05-05 09:26 41.61839 2.55175 14171 ft 320 kts 250°
2026-05-05 09:26 41.61174 2.52374 13703 ft 320 kts 250°
2026-05-05 09:27 41.60504 2.49538 13132 ft 320 kts 250°
2026-05-05 09:27 41.59811 2.46665 12565 ft 321 kts 250°
2026-05-05 09:27 41.59117 2.43851 11923 ft 324 kts 250°
2026-05-05 09:27 41.58397 2.40964 11163 ft 330 kts 250°
2026-05-05 09:28 41.57653 2.37998 10418 ft 335 kts 250°
2026-05-05 09:28 41.56804 2.35076 9529 ft 340 kts 242°
2026-05-05 09:28 41.55580 2.32401 8647 ft 345 kts 234°
2026-05-05 09:28 41.53846 2.30267 8468 ft 332 kts 213°
2026-05-05 09:29 41.51781 2.29047 8375 ft 319 kts 197°
2026-05-05 09:29 41.49630 2.28632 8341 ft 307 kts 184°
2026-05-05 09:29 41.47539 2.28903 8302 ft 299 kts 168°
2026-05-05 09:29 41.45709 2.30127 8214 ft 295 kts 140°
2026-05-05 09:30 41.44688 2.32396 8148 ft 286 kts 106°
2026-05-05 09:30 41.44765 2.34982 7939 ft 280 kts 70°
2026-05-05 09:30 41.45890 2.36992 7732 ft 268 kts 32°
2026-05-05 09:30 41.47463 2.38205 7600 ft 260 kts 40°
2026-05-05 09:31 41.48442 2.40216 7412 ft 262 kts 71°
2026-05-05 09:31 41.49069 2.42505 7162 ft 264 kts 70°
2026-05-05 09:31 41.49757 2.44745 6815 ft 259 kts 68°
2026-05-05 09:31 41.50462 2.46926 6360 ft 259 kts 67°
2026-05-05 09:32 41.51192 2.49121 5856 ft 258 kts 66°
2026-05-05 09:32 41.51928 2.51296 5336 ft 257 kts 65°
2026-05-05 09:32 41.52665 2.53465 4838 ft 256 kts 65°
2026-05-05 09:32 41.53400 2.55624 4332 ft 254 kts 65°
2026-05-05 09:33 41.53898 2.57848 3882 ft 250 kts 88°
2026-05-05 09:33 41.53536 2.60043 3510 ft 241 kts 120°
2026-05-05 09:33 41.52410 2.61632 3069 ft 235 kts 152°
2026-05-05 09:33 41.50901 2.62291 2813 ft 222 kts 170°
2026-05-05 09:34 41.49426 2.62291 2619 ft 205 kts 203°
2026-05-05 09:34 41.48447 2.61106 2483 ft 187 kts 249°
2026-05-05 09:34 41.48465 2.59439 2353 ft 184 kts 289°
2026-05-05 09:34 41.48581 2.57777 2311 ft 180 kts 260°
2026-05-05 09:35 41.48187 2.56214 2396 ft 176 kts 248°
2026-05-05 09:35 41.47530 2.53205 3879 ft 154 kts 275°
2026-05-05 09:35 41.47864 2.51912 4924 ft 160 kts 282°
2026-05-05 09:36 41.47757 2.50227 4998 ft 207 kts 247°
2026-05-05 09:36 41.46980 2.48850 6094 ft 149 kts 224°
2026-05-05 09:36 41.46235 2.47903 5650 ft 162 kts 225°
2026-05-05 09:36 41.45367 2.46659 4787 ft 195 kts 231°
2026-05-05 09:37 41.44548 2.45388 5010 ft 161 kts 230°
2026-05-05 09:37 41.43810 2.44334 4931 ft 160 kts 227°
2026-05-05 09:37 41.43008 2.43210 4723 ft 169 kts 229°
2026-05-05 09:37 41.42247 2.42105 4833 ft 155 kts 228°
2026-05-05 09:38 41.41518 2.41059 4738 ft 157 kts 229°
2026-05-05 09:38 41.40780 2.39925 4465 ft 167 kts 240°
2026-05-05 09:38 41.40264 2.38528 4388 ft 163 kts 245°
2026-05-05 09:38 41.39798 2.37191 4489 ft 158 kts 245°
2026-05-05 09:39 41.39332 2.35836 4392 ft 165 kts 246°
2026-05-05 09:39 41.38844 2.34416 4360 ft 169 kts 245°
2026-05-05 09:39 41.38335 2.32959 4248 ft 176 kts 245°
2026-05-05 09:39 41.37798 2.31423 4015 ft 188 kts 246°
2026-05-05 09:40 41.37237 2.29805 3678 ft 197 kts 246°
2026-05-05 09:40 41.36681 2.28188 3253 ft 194 kts 246°
2026-05-05 09:40 41.36114 2.26563 2836 ft 189 kts 246°
2026-05-05 09:40 41.35567 2.25034 2551 ft 178 kts 246°
2026-05-05 09:41 41.35043 2.23570 2212 ft 169 kts 246°
2026-05-05 09:41 41.34562 2.22226 2011 ft 155 kts 246°
2026-05-05 09:41 41.34112 2.20907 1565 ft 158 kts 246°
2026-05-05 09:41 41.33681 2.19588 1266 ft 148 kts 248°
2026-05-05 09:42 41.33296 2.18345 1161 ft 143 kts 248°
2026-05-05 09:42 41.32911 2.17145 1118 ft 142 kts 247°
2026-05-05 09:42 41.32508 2.15922 1074 ft 144 kts 245°
2026-05-05 09:42 41.32061 2.14719 1031 ft 147 kts 245°
2026-05-05 09:43 41.31607 2.13463 728 ft 153 kts 247°
2026-05-05 09:43 41.31177 2.12177 386 ft 150 kts 250°
2026-05-05 09:43 41.30772 2.10950 156 ft 141 kts 248°
2026-05-05 09:43 41.30373 2.09799 22 ft 130 kts 248°
2026-05-05 09:44 41.30048 2.08832 21 ft 94 kts 245°
2026-05-05 09:44 41.29833 2.08206 21 ft 57 kts 245°
2026-05-05 09:44 41.29747 2.07830 15 ft 27 kts 272°
2026-05-05 09:44 41.29777 2.07628 13 ft 12 kts 313°
2026-05-05 09:45 41.29826 2.07600 14 ft 0 kts 337°
2026-05-05 09:46 41.29844 2.07561 15 ft 10 kts 283°
2026-05-05 09:46 41.29829 2.07477 16 ft 9 kts 239°
2026-05-05 09:46 41.29801 2.07399 15 ft 9 kts 247°
2026-05-05 09:47 41.29775 2.07323 16 ft 9 kts 246°
2026-05-05 09:47 41.29750 2.07249 17 ft 9 kts 246°
2026-05-05 09:47 41.29726 2.07178 15 ft 8 kts 246°
2026-05-05 09:47 41.29703 2.07107 16 ft 8 kts 246°
2026-05-05 09:48 41.29680 2.07039 15 ft 8 kts 245°
2026-05-05 09:48 41.29657 2.06974 16 ft 8 kts 245°
2026-05-05 09:48 41.29635 2.06910 15 ft 7 kts 245°
2026-05-05 09:48 41.29622 2.06846 15 ft 7 kts 280°
2026-05-05 09:49 41.29657 2.06803 15 ft 7 kts 332°
2026-05-05 09:49 41.29699 2.06773 16 ft 7 kts 333°
2026-05-05 09:49 41.29742 2.06746 17 ft 7 kts 335°
2026-05-05 09:49 41.29786 2.06730 18 ft 7 kts
2026-05-05 09:50 41.29825 2.06753 20 ft 5 kts 49°
2026-05-05 09:50 41.29830 2.06784 19 ft 3 kts 107°
2026-05-05 09:50 41.29813 2.06797 18 ft 3 kts 165°
2026-05-05 09:50 41.29787 2.06810 18 ft 4 kts 155°
2026-05-05 09:51 41.29783 2.06813 18 ft 1 kts 155°
2026-05-05 09:51 41.29773 2.06819 17 ft 0 kts 155°